Location: Chilton Park
(37.7711°N, 100.0276°W)
Time: 13:26:41
(UTC+00:00)

Cosmos 1898 Rocket - Pass Details

Date: 03 July 2022
Orbit: 753 x 783 km, 74.0° (Epoch: 18 August)

Event Time Altitude Azimuth Distance (km) Brightness Sun altitude
Rises 07:42:58 0° 350° (N) 3,213 7.7 -27.7°
Reaches altitude 10° 07:45:32 10° 360° (N) 2,284 6.9 -27.6°
Maximum altitude 07:50:16 35° 65° (ENE) 1,203 4.8 -27.3°
Enters shadow 07:52:07 27° 106° (ESE) 1,425 4.9 -27.2°
